Andover, NJ

10:47 AM EST on December 08, 2019 (GMT -0500)
Andover

Weather History for K12N - September, 2019

Change the Weather History Date:

Tuesday, September 10, 2019

  Actual Average (KFWN) Record (KFWN)
Temperature  
Mean Temperature 70 °F -  
Max Temperature 78 °F 75 °F 93 °F (1959)
Min Temperature 61 °F 49 °F 34 °F (1956)
Cooling Degree Days 4    
Growing Degree Days 20 (Base 50)    
Moisture  
Dew Point 63 °F    
Average Humidity 85    
Maximum Humidity 97    
Minimum Humidity 60    
Precipitation  
Precipitation 0.00 in - - ()
Sea Level Pressure  
Sea Level Pressure 30.30 in    
Wind  
Wind Speed 1 mph (SSW)    
Max Wind Speed 9 mph    
Max Gust Speed -    
Averages and records for this station are not official NWS values.
T = Trace of Precipitation, MM = Missing Value Source: NWS Daily Summary

Daily Weather History Graph

Daily Weather History Graph

Search for Another Location

Airport or City:

Astronomy

Sep. 10, 2019 Rise Set
Actual Time 6:34 AM EDT 7:16 PM EDT
Civil Twilight 6:06 AM EDT 7:44 PM EDT
Nautical Twilight 5:33 AM EDT 8:17 PM EDT
Astronomical Twilight 4:59 AM EDT 8:51 PM EDT
Moon 5:53 PM EDT (9/10) 2:55 AM EDT (9/10)
Length of Visible Light 13h 38m
Length of Day
12h 42m
Waxing Gibbous, 89% of the Moon is Illuminated
Sep 10
Waxing Gibbous
Sep 14
Full
Sep 21
Last Quarter
Sep 28
New
Oct 5
First Quarter

Hourly Weather History & Observations

Time (EDT) Temp. Dew Point Humidity Pressure Visibility Wind Dir Wind Speed Gust Speed Precip Events Conditions
12:54 AM 62.1 °F 61.0 °F 96% 30.28 in - Calm Calm - N/A   Unknown
1:54 AM 61.0 °F 60.1 °F 97% 30.29 in - Calm Calm - N/A   Unknown
2:54 AM 63.0 °F 62.1 °F 97% 30.29 in - Calm Calm - N/A   Unknown
3:54 AM 64.0 °F 63.0 °F 96% 30.30 in - Calm Calm - N/A   Unknown
4:54 AM 64.0 °F 62.1 °F 93% 30.30 in - North 3.5 mph - N/A   Unknown
5:54 AM 63.0 °F 62.1 °F 97% 30.32 in - NE 3.5 mph - N/A   Unknown
6:54 AM 63.0 °F 62.1 °F 97% 30.34 in - Calm Calm - N/A   Unknown
7:54 AM 64.0 °F 62.1 °F 93% 30.34 in - Calm Calm - N/A   Unknown
8:54 AM 64.9 °F 63.0 °F 93% 30.35 in - Calm Calm - N/A   Unknown
9:54 AM 66.9 °F 64.0 °F 90% 30.35 in - Calm Calm - N/A   Unknown
10:54 AM 73.9 °F 64.0 °F 71% 30.35 in - Calm Calm - N/A   Unknown
11:54 AM 73.9 °F 63.0 °F 68% 30.34 in - Variable 3.5 mph - N/A   Unknown
12:54 PM 75.0 °F 63.0 °F 66% 30.32 in - South 4.6 mph - N/A   Unknown
1:54 PM 77.0 °F 63.0 °F 62% 30.31 in - Variable 6.9 mph - N/A   Unknown
2:54 PM 78.1 °F 63.0 °F 60% 30.29 in - SW 9.2 mph - N/A   Unknown
3:54 PM 78.1 °F 64.0 °F 62% 30.28 in - Variable 4.6 mph - N/A   Unknown
5:54 PM 75.9 °F 66.0 °F 71% 30.26 in - Calm Calm - N/A   Unknown
6:54 PM 71.1 °F 66.0 °F 84% 30.27 in - Calm Calm - N/A   Unknown
7:54 PM 66.9 °F 64.9 °F 93% 30.26 in - Calm Calm - N/A   Unknown
8:54 PM 66.0 °F 64.0 °F 93% 30.26 in - Calm Calm - N/A   Unknown
9:54 PM 64.9 °F 63.0 °F 93% 30.25 in - Calm Calm - N/A   Unknown
10:54 PM 66.0 °F 64.0 °F 93% 30.24 in - Calm Calm - N/A   Unknown
11:54 PM 66.9 °F 64.0 °F 90% 30.24 in - Calm Calm - N/A   Unknown